Location: Buch
(50.1863°N, 11.0141°E)
Time: 18:44:02
(UTC+00:00)

H-2A R/B - Pass Details

Date: 18 January 2020
Orbit: 503 x 540 km, 97.3° (Epoch: 06 February)

Event Time Altitude Azimuth Distance (km) Brightness Sun altitude
Rises 05:08:55 0° 18° (NNE) 2,712 6.5 -18.4°
Reaches altitude 10° 05:11:08 10° 26° (NNE) 1,815 5.6 -18.1°
Maximum altitude 05:14:52 42° 98° (E) 783 4.1 -17.5°
Drops below altitude 10° 05:18:34 10° 170° (S) 1,794 5.7 -16.9°
Sets 05:20:45 0° 177° (S) 2,676 6.5 -16.6°
